TimeMST,TemperatureF,Dew PointF,Humidity,Sea Level PressureIn,VisibilityMPH,Wind Direction,Wind SpeedMPH,Gust SpeedMPH,PrecipitationIn,Events,Conditions,WindDirDegrees,DateUTC
12:53 AM,10.9,5.0,77,30.33,10.0,Calm,Calm,-,N/A,,Clear,0,2013-03-05 07:53:00
1:53 AM,9.0,3.9,80,30.32,10.0,Calm,Calm,-,N/A,,Clear,0,2013-03-05 08:53:00
2:53 AM,8.1,3.0,80,30.31,10.0,SE,3.5,-,N/A,,Clear,130,2013-03-05 09:53:00
3:53 AM,6.1,1.0,80,30.32,10.0,Calm,Calm,-,N/A,,Clear,0,2013-03-05 10:53:00
4:53 AM,5.0,1.0,84,30.32,10.0,SSE,4.6,-,N/A,,Clear,160,2013-03-05 11:53:00
5:53 AM,5.0,1.0,84,30.33,10.0,East,5.8,-,N/A,,Clear,100,2013-03-05 12:53:00
6:53 AM,6.1,1.9,83,30.32,10.0,South,4.6,-,N/A,,Clear,180,2013-03-05 13:53:00
7:53 AM,8.1,3.0,80,30.32,10.0,East,3.5,-,N/A,,Clear,90,2013-03-05 14:53:00
8:53 AM,10.9,6.1,81,30.32,10.0,Calm,Calm,-,N/A,,Clear,0,2013-03-05 15:53:00
9:53 AM,16.0,9.0,74,30.29,10.0,Calm,Calm,-,N/A,,Clear,0,2013-03-05 16:53:00
10:53 AM,19.9,10.0,65,30.25,10.0,Calm,Calm,-,N/A,,Clear,0,2013-03-05 17:53:00
11:53 AM,27.0,10.0,49,30.20,10.0,Calm,Calm,-,N/A,,Clear,0,2013-03-05 18:53:00
12:53 PM,30.0,9.0,41,30.17,10.0,West,3.5,-,N/A,,Clear,280,2013-03-05 19:53:00
1:53 PM,30.9,10.0,42,30.15,10.0,Calm,Calm,-,N/A,,Clear,0,2013-03-05 20:53:00
2:53 PM,35.1,10.9,37,30.09,10.0,Calm,Calm,-,N/A,,Clear,0,2013-03-05 21:53:00
3:53 PM,37.0,12.0,36,30.08,10.0,Calm,Calm,-,N/A,,Mostly Cloudy,0,2013-03-05 22:53:00
4:53 PM,36.0,14.0,41,30.09,10.0,North,5.8,-,N/A,,Overcast,10,2013-03-05 23:53:00
5:53 PM,35.1,14.0,42,30.09,10.0,Calm,Calm,-,N/A,,Mostly Cloudy,0,2013-03-06 00:53:00
6:53 PM,33.1,17.1,52,30.09,10.0,Calm,Calm,-,N/A,,Overcast,0,2013-03-06 01:53:00
7:53 PM,30.9,17.1,57,30.09,10.0,Calm,Calm,-,N/A,,Overcast,0,2013-03-06 02:53:00
8:53 PM,30.0,18.0,61,30.08,10.0,Calm,Calm,-,N/A,,Overcast,0,2013-03-06 03:53:00
9:53 PM,27.0,18.0,69,30.07,10.0,Calm,Calm,-,N/A,,Partly Cloudy,0,2013-03-06 04:53:00
10:53 PM,27.0,16.0,63,30.04,10.0,Calm,Calm,-,N/A,,Clear,0,2013-03-06 05:53:00
11:53 PM,26.1,17.1,69,30.01,10.0,Calm,Calm,-,N/A,,Overcast,0,2013-03-06 06:53:00